Location: *
(35.8942°N, 23.3025°E)
Time: 23:33:55
(UTC+00:00)

Cosmos 1933 Rocket - Pass Details

Date: 21 September 2021
Orbit: 607 x 629 km, 82.5° (Epoch: 22 October)

Event Time Altitude Azimuth Distance (km) Brightness Sun altitude
Rises 03:32:25 0° 343° (NNW) 2,891 6.9 -9.2°
Reaches altitude 10° 03:34:45 10° 335° (NNW) 1,985 6.0 -8.7°
Maximum altitude 03:38:48 37° 269° (W) 968 4.1 -7.9°
Drops below altitude 10° 03:42:51 10° 202° (SSW) 1,985 5.9 -7.1°
Sets 03:45:11 0° 193° (SSW) 2,890 6.8 -6.6°
